SCP
3 3 3 2 1 0 0 0 0 0 0 0 0 0 0 0 0 0 0 0 0 0 0 0 0 0 0 0 0 0 0 0 0 0 0 0 0 0 0 0 0 0 0
4 3 1 1 0 0 0 0 0 0 0 0 0 0 0 0 0 0 0 0 0 0 0 0 0 0 0 0 0 0 0 0 0 0 0 0 0 0 0 0 0 0 0
2 1 1 0 0 0 0 0 0 0 0 0 0 0 0 0 0 0 0 0 0 0 0 0 0 0 0 0 0 0 0 0 0 0 0 0 0 0 0 0 0 0 0
0 0 0 0 0 0 0 0 0 0 0 0 0 0 0 0 0 0 0 0 0 0 0 0 0 0 0 0 0 0 0 0 0 0 0 0 0 0 0 0 0 0 0
0 0 0 0 0 0 0 0 0 0 0 0 0 0 0 0 0 0 0 0 0 0 0 0 0 0 0 0 0 0 0 0 0 0 0 0 0 0 0 0 0 0 0
0 0 -0 -0 0 0 0 0 0 0 0 0 0 0 0 0 0 0 0 0 0 0 0 0 0 0 0 0 0 0 0 0 0 0 0 0 0 0 0 0 0 0 0
0 -0 -0 0 0 0 0 0 0 0 0 0 0 0 0 0 0 0 0 0 0 0 0 0 0 0 0 0 0 0 0 0 0 0 0 0 0 0 0 0 0 0 0
0 -0 0 0 0 0 0 0 0 0 0 0 0 0 0 0 0 0 0 0 0 0 0 0 0 0 0 0 0 0 0 0 0 0 0 0 0 0 0 0 0 0 0
-0 -0 0 0 0 0 0 0 0 0 0 0 0 0 0 0 0 0 0 0 0 0 0 0 0 0 0 0 0 0 0 0 0 0 0 0 -0 0 0 0 0 0 0
-0 -0 0 0 0 0 0 0 0 0 0 0 0 0 0 0 0 0 0 0 0 0 0 0 0 0 0 0 0 0 0 0 0 0 0 0 0 0 0 0 0 0 0
-0 0 0 0 0 0 0 0 0 0 0 0 0 0 0 0 0 0 0 0 0 0 0 0 0 0 0 0 0 0 0 0 -0 -0 0 -0 0 0 0 0 0 0 0
0 0 0 0 0 0 0 0 0 0 0 0 0 0 0 0 0 0 0 0 0 0 0 0 0 0 0 0 0 0 -0 0 0 0 -0 -0 0 0 0 0 0 0 0
0 0 0 0 0 0 0 0 0 0 0 0 0 0 0 0 0 0 0 0 0 0 0 0 0 0 0 0 0 0 0 0 0 0 -0 -0 0 0 0 0 0 0 0
0 0 0 0 0 0 0 0 0 0 0 0 0 0 0 0 0 0 0 0 0 0 0 0 0 0 0 0 0 0 0 0 0 0 0 0 0 0 0 0 0 0 0
0 -0 0 0 0 0 0 0 0 -0 -0 0 0 0 0 0 0 0 0 0 0 0 0 0 0 0 0 0 0 -0 0 0 0 0 0 0 -0 0 0 0 0 0 0
0 0 0 0 0 0 0 -0 -0 -0 -0 0 0 0 0 0 0 0 0 0 0 0 0 0 0 0 0 0 0 -0 0 0 -0 0 0 -0 -0 -0 -0 0 0 0 0
0 -0 0 0 0 -0 -0 -0 -0 0 0 0 0 0 0 0 0 0 0 -0 -0 0 0 0 0 0 0 0 0 0 0 0 -0 -0 0 0 -0 -0 -0 -0 0 0 0
0 0 -0 -0 -0 -0 -0 0 0 0 0 0 0 0 0 -0 0 0 0 0 0 0 0 0 0 -0 0 0 0 0 0 0 -0 -0 0 0 -0 -0 -0 -0 0 0 0
0 0 -0 -0 -0 -0 0 0 0 0 0 0 0 0 0 -0 -0 0 0 0 0 0 0 0 0 0 0 0 0 0 0 0 -0 -0 -0 0 0 -0 -0 -0 -0 -0 0
-0 -0 -0 -0 -0 0 0 0 0 0 0 0 0 0 0 0 0 0 0 0 0 0 0 0 0 0 0 0 0 -0 -0 -0 -0 -0 -0 -0 -0 0 -0 -0 -0 -0 -0
-0 -0 -0 -0 -0 0 0 0 0 0 0 0 0 0 0 0 0 0 0 0 0 0 0 0 0 0 0 0 0 0 -0 -0 -0 -0 -0 -0 -0 -0 -0 -0 -0 -0 -0
-0 -0 -0 -0 0 0 0 0 0 0 0 0 0 0 0 0 0 0 0 0 0 0 0 0 0 0 0 0 -0 -0 -0 -0 -0 -0 -0 -0 -0 -0 -0 -0 0 -0 -0
-0 -0 -0 0 0 0 0 0 0 0 0 0 0 0 0 0 0 0 0 0 0 0 0 0 0 0 0 0 0 -0 -0 -0 -0 -0 -0 -0 -0 -0 -0 -0 0 -0 -0
-0 -0 0 0 0 0 0 0 0 0 0 0 0 0 0 0 0 0 0 0 0 0 0 0 0 0 0 0 0 -0 -0 -0 -0 -0 -0 -0 -0 -0 -0 -0 0 -0 -0
-0 -0 0 0 0 0 0 0 0 0 0 0 0 0 0 0 0 0 0 0 0 0 0 0 0 0 0 -0 -0 -0 -0 -0 -0 -0 -0 -0 -0 -0 -0 -0 0 0 -0
-0 0 0 0 0 0 0 0 0 0 0 0 0 0 0 0 0 0 0 0 0 0 0 0 0 0 -0 0 -0 -0 -0 -0 -0 -0 -0 -0 -0 -0 -0 -0 -0 0 -0
Wind_Speed_500mb
65 64 63 60 51 44 41 37 28 29 27 17 10 5 3 8 14 16 18 17 19 17 18 20 23 25 26 26 30 31 36 41 51 62 59 62 70 69 63 65 61 60 59
71 79 71 61 49 46 40 31 33 30 22 15 12 10 9 11 13 14 14 16 17 18 19 22 24 26 28 28 32 34 37 42 49 62 65 67 68 66 66 66 63 64 66
85 76 68 59 50 47 42 40 36 27 20 16 13 10 11 14 16 16 16 18 19 19 21 22 24 28 33 38 40 38 39 44 44 54 67 67 70 67 77 67 74 78 75
75 73 68 57 51 48 43 39 32 24 19 17 15 16 15 14 16 19 20 19 18 17 20 21 22 35 42 48 49 45 45 45 49 52 59 70 82 80 81 82 87 82 82
77 70 59 54 51 46 41 37 31 26 23 22 19 17 18 19 19 17 20 19 18 19 21 22 23 38 42 45 48 48 54 51 58 61 74 84 88 84 79 83 82 83 84
71 61 56 56 52 48 41 36 33 30 27 26 25 22 21 20 19 18 17 17 17 18 19 23 22 31 40 44 46 40 47 57 60 63 68 79 82 72 73 76 76 77 71
64 62 62 59 52 43 39 36 32 30 28 27 24 21 20 18 17 18 17 15 15 18 22 27 28 36 47 50 53 48 38 43 51 59 69 67 71 67 65 70 67 68 71
68 63 59 52 48 43 39 35 32 30 29 29 25 20 17 16 17 19 21 17 14 18 22 29 39 46 50 54 55 46 41 36 41 57 66 52 58 62 59 56 60 72 61
64 58 53 48 46 42 39 37 33 31 31 27 23 20 15 12 10 12 14 13 17 17 23 39 41 47 49 50 50 46 45 44 43 50 62 51 50 43 41 55 67 72 68
61 57 51 47 45 43 40 37 35 32 30 24 22 16 10 9 9 12 15 16 16 19 17 26 41 44 46 47 46 49 51 52 52 51 72 63 63 49 43 46 59 60 59
61 57 52 48 46 43 42 37 34 31 28 23 18 15 13 16 16 17 18 19 20 21 23 30 34 43 43 37 38 47 51 47 44 41 62 72 70 63 52 48 50 46 51
60 57 53 49 44 41 40 36 32 27 25 23 22 21 22 23 19 20 22 23 24 21 25 31 36 37 36 42 40 43 47 47 44 46 63 76 78 75 66 56 52 50 41
60 57 53 49 44 39 36 34 29 24 20 18 17 17 18 20 20 18 22 24 27 31 29 42 45 42 40 34 42 42 42 46 50 51 63 71 75 76 72 66 62 61 64
62 58 52 50 46 40 36 32 31 29 20 20 18 14 14 21 24 27 29 30 27 25 34 31 36 36 35 36 38 41 42 46 49 56 60 61 72 82 78 78 74 76 74
61 59 54 49 46 42 39 35 35 35 25 23 18 13 16 22 28 35 33 35 36 39 35 29 34 37 40 42 42 43 47 49 57 58 58 65 73 74 81 82 77 75 79
63 49 46 45 45 46 46 46 36 28 22 24 21 23 26 28 30 27 31 39 39 40 33 35 38 39 41 42 45 47 50 56 60 55 58 65 71 72 80 81 79 74 80
60 51 47 43 41 39 38 39 41 39 35 36 35 34 34 32 29 30 38 43 45 37 37 38 39 40 41 42 43 47 52 55 53 59 61 60 68 71 74 79 80 73 74
50 48 41 38 36 32 29 27 25 22 21 32 40 35 37 35 34 30 40 32 35 37 38 39 40 40 41 43 45 47 49 54 56 56 63 65 63 67 73 78 77 71 65
45 42 40 38 35 33 31 28 26 25 25 22 22 34 40 45 47 43 40 36 34 35 35 37 38 39 42 43 48 50 49 49 52 52 61 67 63 63 68 71 73 67 62
45 47 43 40 36 33 30 29 28 27 25 23 21 21 26 26 29 32 35 34 33 34 35 37 39 39 40 44 48 50 51 47 51 51 62 63 63 58 61 64 78 69 62
44 42 41 37 34 32 30 29 28 26 25 28 30 33 37 25 27 29 30 32 33 33 35 36 37 40 41 44 44 50 51 49 48 45 59 63 63 59 57 61 64 72 64
42 40 38 36 35 33 31 29 27 26 24 23 22 28 33 25 26 26 28 29 29 31 32 35 37 40 42 44 47 49 57 59 51 49 57 59 61 56 55 55 60 68 65
41 40 38 37 37 36 30 27 26 25 24 23 21 21 23 24 24 25 25 26 28 30 31 33 37 38 43 46 51 53 59 61 55 47 58 55 54 56 54 54 57 63 63
41 40 38 35 31 29 27 27 27 27 24 21 21 21 22 22 23 24 23 24 26 28 29 32 34 39 44 50 51 52 54 53 51 49 53 51 47 53 52 51 51 59 61
36 37 35 33 31 30 30 26 24 22 21 20 20 19 20 20 20 21 22 22 24 26 28 30 34 38 43 47 49 49 50 48 44 49 53 47 44 51 49 49 49 56 58
35 33 31 30 30 28 27 25 22 19 18 18 17 17 18 18 17 19 20 22 23 24 25 27 31 35 42 44 46 48 50 49 45 49 52 46 46 47 49 49 47 60 59
Wind_Direction_500mb
145 140 141 156 159 149 152 150 152 154 152 150 151 163 61 6 1 0 14 22 27 19 3 5 4 360 353 340 339 337 332 328 328 326 333 327 327 331 332 332 337 331 328
143 153 158 159 145 146 147 148 146 145 148 151 105 82 45 19 20 38 38 31 22 15 23 20 7 0 354 342 348 335 336 337 332 330 328 331 329 336 337 337 339 336 331
155 157 157 151 141 140 143 146 145 146 128 107 98 77 64 59 57 52 43 34 31 29 23 13 3 1 2 357 358 350 341 338 338 331 330 330 335 338 339 340 337 338 337
158 156 153 146 143 144 141 142 139 132 127 115 105 96 92 93 79 53 44 40 36 21 17 13 360 6 2 359 358 352 342 343 338 333 329 332 340 342 340 340 336 339 339
152 151 149 145 143 143 146 137 132 124 117 109 103 97 97 90 75 60 64 31 27 22 19 14 354 354 359 359 354 349 353 340 336 332 327 334 338 342 342 337 333 335 342
148 143 140 143 146 141 136 131 124 119 113 106 101 98 101 85 71 64 60 44 26 22 16 12 21 338 357 0 359 354 352 340 336 334 332 330 337 340 339 338 336 337 328
134 132 131 133 132 127 123 120 122 117 114 105 103 109 102 90 69 51 40 43 24 18 8 5 6 354 355 355 357 1 353 349 335 341 335 338 340 343 343 338 339 338 335
122 124 125 124 122 123 121 119 113 113 110 103 99 100 92 70 48 34 33 33 10 7 4 351 351 351 349 351 353 355 356 347 354 343 344 340 339 339 340 344 351 342 350
122 122 123 124 121 119 116 113 111 109 106 106 104 92 78 55 33 19 19 22 357 7 353 335 345 347 345 347 350 354 358 354 3 352 1 359 347 345 348 354 2 348 348
123 121 121 120 118 116 114 114 113 110 107 107 104 96 76 52 28 8 352 359 345 7 355 344 332 341 350 348 353 358 358 360 359 348 2 8 8 1 6 13 9 350 348
121 120 118 118 116 116 115 114 115 114 111 103 95 75 54 37 27 17 8 3 2 5 352 348 345 349 350 351 357 2 3 3 353 360 358 13 14 12 14 19 16 0 353
119 118 116 114 113 113 113 112 109 105 100 92 82 67 45 29 20 15 7 4 2 13 0 352 355 354 1 1 360 3 5 5 3 1 8 13 15 14 17 23 22 18 9
117 115 113 112 111 109 107 102 99 99 97 91 78 61 43 26 14 9 11 11 17 16 16 2 8 10 5 4 2 1 3 5 4 2 7 6 15 15 18 22 28 31 25
117 114 113 110 107 105 106 112 122 109 96 90 76 62 45 30 37 35 30 26 26 18 27 8 10 9 8 7 8 7 7 10 6 1 358 0 6 12 18 23 24 28 20
119 117 117 127 132 131 125 118 128 119 110 97 78 93 72 52 47 39 32 33 35 37 31 13 16 15 12 12 12 9 9 16 12 5 359 5 8 3 14 21 24 28 26
114 114 114 112 109 108 109 108 105 98 95 92 85 81 70 61 51 42 40 41 43 43 25 21 18 16 14 12 10 9 10 19 12 6 3 2 4 4 6 15 22 29 28
117 116 115 111 110 109 103 99 97 90 88 83 77 72 63 58 51 45 47 37 36 39 30 21 17 14 11 12 11 10 7 18 12 8 7 6 2 4 5 12 17 23 33
117 115 115 115 113 108 102 96 92 89 80 65 57 56 56 52 50 52 59 46 37 35 30 23 15 11 11 11 11 8 7 11 16 9 9 9 6 5 7 8 13 19 27
114 118 117 116 117 114 111 110 106 99 89 75 49 36 38 38 37 34 46 45 38 34 31 25 16 12 10 9 11 10 11 8 14 10 11 8 9 6 6 6 15 24 27
121 121 114 111 109 110 109 107 99 89 83 75 71 61 63 45 43 40 38 39 36 33 29 28 18 13 12 9 9 8 9 8 10 14 12 8 9 9 7 7 10 19 24
113 112 115 113 113 112 108 102 97 92 84 76 68 78 73 56 49 44 40 37 34 31 28 28 21 15 13 11 11 8 12 8 10 10 14 9 4 10 7 8 4 15 19
113 115 117 114 110 107 104 100 97 93 87 78 66 55 64 59 53 48 44 37 35 31 28 29 24 17 15 13 13 12 17 15 18 17 30 8 3 14 8 9 7 8 18
120 119 117 115 109 101 101 100 96 93 87 80 73 63 56 56 51 49 43 41 33 32 28 29 25 20 18 19 20 19 18 20 25 29 28 7 5 12 10 11 8 7 19
117 113 111 110 113 111 108 103 103 97 87 78 71 64 60 53 51 46 43 37 39 31 29 27 23 20 18 23 22 21 20 18 21 28 34 6 10 9 13 14 7 7 16
119 115 114 114 114 110 106 103 98 94 87 82 75 67 60 54 48 43 42 39 35 35 26 26 22 15 18 20 21 22 21 20 23 32 31 12 16 9 18 16 11 13 19
117 120 119 118 116 113 110 106 101 96 90 84 78 73 67 57 49 42 37 36 36 30 29 23 19 11 14 18 18 18 20 19 19 34 27 15 15 17 21 20 14 16 20
Wind_Speed_850mb
65 64 63 60 51 44 41 37 28 29 27 17 10 5 3 8 14 16 18 17 19 17 18 20 23 25 26 26 30 31 36 41 51 62 59 62 70 69 63 65 61 60 59
71 79 71 61 49 46 40 31 33 30 22 15 12 10 9 11 13 14 14 16 17 18 19 22 24 26 28 28 32 34 37 42 49 62 65 67 68 66 66 66 63 64 66
85 76 68 59 50 47 42 40 36 27 20 16 13 10 11 14 16 16 16 18 19 19 21 22 24 28 33 38 40 38 39 44 44 54 67 67 70 67 77 67 74 78 75
75 73 68 57 51 48 43 39 32 24 19 17 15 16 15 14 16 19 20 19 18 17 20 21 22 35 42 48 49 45 45 45 49 52 59 70 82 80 81 82 87 82 82
77 70 59 54 51 46 41 37 31 26 23 22 19 17 18 19 19 17 20 19 18 19 21 22 23 38 42 45 48 48 54 51 58 61 74 84 88 84 79 83 82 83 84
71 61 56 56 52 48 41 36 33 30 27 26 25 22 21 20 19 18 17 17 17 18 19 23 22 31 40 44 46 40 47 57 60 63 68 79 82 72 73 76 76 77 71
64 62 62 59 52 43 39 36 32 30 28 27 24 21 20 18 17 18 17 15 15 18 22 27 28 36 47 50 53 48 38 43 51 59 69 67 71 67 65 70 67 68 71
68 63 59 52 48 43 39 35 32 30 29 29 25 20 17 16 17 19 21 17 14 18 22 29 39 46 50 54 55 46 41 36 41 57 66 52 58 62 59 56 60 72 61
64 58 53 48 46 42 39 37 33 31 31 27 23 20 15 12 10 12 14 13 17 17 23 39 41 47 49 50 50 46 45 44 43 50 62 51 50 43 41 55 67 72 68
61 57 51 47 45 43 40 37 35 32 30 24 22 16 10 9 9 12 15 16 16 19 17 26 41 44 46 47 46 49 51 52 52 51 72 63 63 49 43 46 59 60 59
61 57 52 48 46 43 42 37 34 31 28 23 18 15 13 16 16 17 18 19 20 21 23 30 34 43 43 37 38 47 51 47 44 41 62 72 70 63 52 48 50 46 51
60 57 53 49 44 41 40 36 32 27 25 23 22 21 22 23 19 20 22 23 24 21 25 31 36 37 36 42 40 43 47 47 44 46 63 76 78 75 66 56 52 50 41
60 57 53 49 44 39 36 34 29 24 20 18 17 17 18 20 20 18 22 24 27 31 29 42 45 42 40 34 42 42 42 46 50 51 63 71 75 76 72 66 62 61 64
62 58 52 50 46 40 36 32 31 29 20 20 18 14 14 21 24 27 29 30 27 25 34 31 36 36 35 36 38 41 42 46 49 56 60 61 72 82 78 78 74 76 74
61 59 54 49 46 42 39 35 35 35 25 23 18 13 16 22 28 35 33 35 36 39 35 29 34 37 40 42 42 43 47 49 57 58 58 65 73 74 81 82 77 75 79
63 49 46 45 45 46 46 46 36 28 22 24 21 23 26 28 30 27 31 39 39 40 33 35 38 39 41 42 45 47 50 56 60 55 58 65 71 72 80 81 79 74 80
60 51 47 43 41 39 38 39 41 39 35 36 35 34 34 32 29 30 38 43 45 37 37 38 39 40 41 42 43 47 52 55 53 59 61 60 68 71 74 79 80 73 74
50 48 41 38 36 32 29 27 25 22 21 32 40 35 37 35 34 30 40 32 35 37 38 39 40 40 41 43 45 47 49 54 56 56 63 65 63 67 73 78 77 71 65
45 42 40 38 35 33 31 28 26 25 25 22 22 34 40 45 47 43 40 36 34 35 35 37 38 39 42 43 48 50 49 49 52 52 61 67 63 63 68 71 73 67 62
45 47 43 40 36 33 30 29 28 27 25 23 21 21 26 26 29 32 35 34 33 34 35 37 39 39 40 44 48 50 51 47 51 51 62 63 63 58 61 64 78 69 62
44 42 41 37 34 32 30 29 28 26 25 28 30 33 37 25 27 29 30 32 33 33 35 36 37 40 41 44 44 50 51 49 48 45 59 63 63 59 57 61 64 72 64
42 40 38 36 35 33 31 29 27 26 24 23 22 28 33 25 26 26 28 29 29 31 32 35 37 40 42 44 47 49 57 59 51 49 57 59 61 56 55 55 60 68 65
41 40 38 37 37 36 30 27 26 25 24 23 21 21 23 24 24 25 25 26 28 30 31 33 37 38 43 46 51 53 59 61 55 47 58 55 54 56 54 54 57 63 63
41 40 38 35 31 29 27 27 27 27 24 21 21 21 22 22 23 24 23 24 26 28 29 32 34 39 44 50 51 52 54 53 51 49 53 51 47 53 52 51 51 59 61
36 37 35 33 31 30 30 26 24 22 21 20 20 19 20 20 20 21 22 22 24 26 28 30 34 38 43 47 49 49 50 48 44 49 53 47 44 51 49 49 49 56 58
35 33 31 30 30 28 27 25 22 19 18 18 17 17 18 18 17 19 20 22 23 24 25 27 31 35 42 44 46 48 50 49 45 49 52 46 46 47 49 49 47 60 59
Wind_Direction_850mb
145 140 141 156 159 149 152 150 152 154 152 150 151 163 61 6 1 0 14 22 27 19 3 5 4 360 353 340 339 337 332 328 328 326 333 327 327 331 332 332 337 331 328
143 153 158 159 145 146 147 148 146 145 148 151 105 82 45 19 20 38 38 31 22 15 23 20 7 0 354 342 348 335 336 337 332 330 328 331 329 336 337 337 339 336 331
155 157 157 151 141 140 143 146 145 146 128 107 98 77 64 59 57 52 43 34 31 29 23 13 3 1 2 357 358 350 341 338 338 331 330 330 335 338 339 340 337 338 337
158 156 153 146 143 144 141 142 139 132 127 115 105 96 92 93 79 53 44 40 36 21 17 13 360 6 2 359 358 352 342 343 338 333 329 332 340 342 340 340 336 339 339
152 151 149 145 143 143 146 137 132 124 117 109 103 97 97 90 75 60 64 31 27 22 19 14 354 354 359 359 354 349 353 340 336 332 327 334 338 342 342 337 333 335 342
148 143 140 143 146 141 136 131 124 119 113 106 101 98 101 85 71 64 60 44 26 22 16 12 21 338 357 0 359 354 352 340 336 334 332 330 337 340 339 338 336 337 328
134 132 131 133 132 127 123 120 122 117 114 105 103 109 102 90 69 51 40 43 24 18 8 5 6 354 355 355 357 1 353 349 335 341 335 338 340 343 343 338 339 338 335
122 124 125 124 122 123 121 119 113 113 110 103 99 100 92 70 48 34 33 33 10 7 4 351 351 351 349 351 353 355 356 347 354 343 344 340 339 339 340 344 351 342 350
122 122 123 124 121 119 116 113 111 109 106 106 104 92 78 55 33 19 19 22 357 7 353 335 345 347 345 347 350 354 358 354 3 352 1 359 347 345 348 354 2 348 348
123 121 121 120 118 116 114 114 113 110 107 107 104 96 76 52 28 8 352 359 345 7 355 344 332 341 350 348 353 358 358 360 359 348 2 8 8 1 6 13 9 350 348
121 120 118 118 116 116 115 114 115 114 111 103 95 75 54 37 27 17 8 3 2 5 352 348 345 349 350 351 357 2 3 3 353 360 358 13 14 12 14 19 16 0 353
119 118 116 114 113 113 113 112 109 105 100 92 82 67 45 29 20 15 7 4 2 13 0 352 355 354 1 1 360 3 5 5 3 1 8 13 15 14 17 23 22 18 9
117 115 113 112 111 109 107 102 99 99 97 91 78 61 43 26 14 9 11 11 17 16 16 2 8 10 5 4 2 1 3 5 4 2 7 6 15 15 18 22 28 31 25
117 114 113 110 107 105 106 112 122 109 96 90 76 62 45 30 37 35 30 26 26 18 27 8 10 9 8 7 8 7 7 10 6 1 358 0 6 12 18 23 24 28 20
119 117 117 127 132 131 125 118 128 119 110 97 78 93 72 52 47 39 32 33 35 37 31 13 16 15 12 12 12 9 9 16 12 5 359 5 8 3 14 21 24 28 26
114 114 114 112 109 108 109 108 105 98 95 92 85 81 70 61 51 42 40 41 43 43 25 21 18 16 14 12 10 9 10 19 12 6 3 2 4 4 6 15 22 29 28
117 116 115 111 110 109 103 99 97 90 88 83 77 72 63 58 51 45 47 37 36 39 30 21 17 14 11 12 11 10 7 18 12 8 7 6 2 4 5 12 17 23 33
117 115 115 115 113 108 102 96 92 89 80 65 57 56 56 52 50 52 59 46 37 35 30 23 15 11 11 11 11 8 7 11 16 9 9 9 6 5 7 8 13 19 27
114 118 117 116 117 114 111 110 106 99 89 75 49 36 38 38 37 34 46 45 38 34 31 25 16 12 10 9 11 10 11 8 14 10 11 8 9 6 6 6 15 24 27
121 121 114 111 109 110 109 107 99 89 83 75 71 61 63 45 43 40 38 39 36 33 29 28 18 13 12 9 9 8 9 8 10 14 12 8 9 9 7 7 10 19 24
113 112 115 113 113 112 108 102 97 92 84 76 68 78 73 56 49 44 40 37 34 31 28 28 21 15 13 11 11 8 12 8 10 10 14 9 4 10 7 8 4 15 19
113 115 117 114 110 107 104 100 97 93 87 78 66 55 64 59 53 48 44 37 35 31 28 29 24 17 15 13 13 12 17 15 18 17 30 8 3 14 8 9 7 8 18
120 119 117 115 109 101 101 100 96 93 87 80 73 63 56 56 51 49 43 41 33 32 28 29 25 20 18 19 20 19 18 20 25 29 28 7 5 12 10 11 8 7 19
117 113 111 110 113 111 108 103 103 97 87 78 71 64 60 53 51 46 43 37 39 31 29 27 23 20 18 23 22 21 20 18 21 28 34 6 10 9 13 14 7 7 16
119 115 114 114 114 110 106 103 98 94 87 82 75 67 60 54 48 43 42 39 35 35 26 26 22 15 18 20 21 22 21 20 23 32 31 12 16 9 18 16 11 13 19
117 120 119 118 116 113 110 106 101 96 90 84 78 73 67 57 49 42 37 36 36 30 29 23 19 11 14 18 18 18 20 19 19 34 27 15 15 17 21 20 14 16 20